Time,TemperatureF,DewpointF,PressureIn,WindDirection,WindDirectionDegrees,WindSpeedMPH,WindSpeedGustMPH,Humidity,HourlyPrecipIn,Conditions,Clouds,dailyrainin,SolarRadiationWatts/m^2,SoftwareType,DateUTC
2016-12-09 00:01:00,46.4,35.2,30.40,NNW,329,2.0,3.0,65,-99.99,,,0.00,1503.0,meteobridge,2016-12-09 08:01:00,
2016-12-09 00:06:00,46.2,35.1,30.40,WNW,302,0.0,0.0,65,-99.99,,,0.00,1503.0,meteobridge,2016-12-09 08:06:00,
2016-12-09 00:17:00,46.0,35.2,30.40,WNW,301,0.0,0.0,66,-99.99,,,0.00,1503.0,meteobridge,2016-12-09 08:17:00,
2016-12-09 00:22:00,46.2,35.4,30.40,NW,316,0.0,0.0,66,-99.99,,,0.00,1503.0,meteobridge,2016-12-09 08:22:00,
2016-12-09 00:27:00,46.0,35.2,30.40,NW,313,0.0,0.0,66,-99.99,,,0.00,1503.0,meteobridge,2016-12-09 08:27:00,
2016-12-09 00:32:00,45.9,35.6,30.40,NW,311,2.0,3.0,67,-99.99,,,0.00,1503.0,meteobridge,2016-12-09 08:32:00,
2016-12-09 00:37:00,45.9,35.1,30.40,WNW,302,0.0,0.0,66,-99.99,,,0.00,1503.0,meteobridge,2016-12-09 08:37:00,
2016-12-09 00:42:00,46.0,35.2,30.40,WNW,302,0.0,0.0,66,-99.99,,,0.00,1503.0,meteobridge,2016-12-09 08:42:00,
2016-12-09 00:47:00,45.9,35.1,30.40,WNW,302,0.0,0.0,66,-99.99,,,0.00,1503.0,meteobridge,2016-12-09 08:47:00,
2016-12-09 00:52:00,45.9,35.1,30.40,WNW,302,0.0,0.0,66,-99.99,,,0.00,1503.0,meteobridge,2016-12-09 08:52:00,
2016-12-09 00:58:00,45.9,35.6,30.41,WNW,302,0.0,0.0,67,-99.99,,,0.00,1503.0,meteobridge,2016-12-09 08:58:00,
2016-12-09 01:03:00,45.9,36.0,30.41,NW,322,0.0,2.0,68,-99.99,,,0.00,1503.0,meteobridge,2016-12-09 09:03:00,
2016-12-09 01:08:00,45.7,35.8,30.41,WNW,301,2.0,2.0,68,-99.99,,,0.00,1503.0,meteobridge,2016-12-09 09:08:00,
2016-12-09 01:13:00,45.5,36.0,30.40,WNW,302,2.0,3.0,69,-99.99,,,0.00,1503.0,meteobridge,2016-12-09 09:13:00,
2016-12-09 01:18:00,45.3,35.8,30.40,NW,308,0.0,1.0,69,-99.99,,,0.00,1503.0,meteobridge,2016-12-09 09:18:00,
2016-12-09 01:24:00,45.3,35.4,30.40,NW,305,0.0,2.0,68,-99.99,,,0.00,1503.0,meteobridge,2016-12-09 09:24:00,
2016-12-09 01:29:00,45.5,36.0,30.40,NW,325,0.0,2.0,69,-99.99,,,0.00,1503.0,meteobridge,2016-12-09 09:29:00,
2016-12-09 01:34:00,45.5,36.0,30.40,NW,308,0.9,2.0,69,-99.99,,,0.00,1503.0,meteobridge,2016-12-09 09:34:00,
2016-12-09 01:44:00,45.5,36.0,30.39,NW,319,0.0,0.0,69,-99.99,,,0.00,1503.0,meteobridge,2016-12-09 09:44:00,
2016-12-09 01:49:00,45.3,35.8,30.39,NW,320,0.0,0.0,69,-99.99,,,0.00,1503.0,meteobridge,2016-12-09 09:49:00,
2016-12-09 01:54:00,45.3,35.8,30.39,NW,309,0.9,2.0,69,-99.99,,,0.00,1503.0,meteobridge,2016-12-09 09:54:00,
2016-12-09 01:59:00,45.3,35.8,30.39,NW,309,0.0,1.0,69,-99.99,,,0.00,1503.0,meteobridge,2016-12-09 09:59:00,
2016-12-09 02:04:00,45.5,36.0,30.39,NW,305,0.9,1.0,69,-99.99,,,0.00,1503.0,meteobridge,2016-12-09 10:04:00,
2016-12-09 02:09:00,45.3,35.4,30.39,NNW,329,0.9,2.0,68,-99.99,,,0.00,1503.0,meteobridge,2016-12-09 10:09:00,
2016-12-09 02:15:00,45.3,35.8,30.39,NW,309,0.0,1.0,69,-99.99,,,0.00,1503.0,meteobridge,2016-12-09 10:15:00,
2016-12-09 02:20:00,45.5,36.0,30.39,NW,315,0.0,0.0,69,-99.99,,,0.00,1503.0,meteobridge,2016-12-09 10:20:00,
2016-12-09 02:25:00,45.3,35.8,30.39,NW,305,2.0,3.0,69,-99.99,,,0.00,1503.0,meteobridge,2016-12-09 10:25:00,
2016-12-09 02:30:00,45.7,36.1,30.39,ESE,117,2.9,7.0,69,-99.99,,,0.00,1503.0,meteobridge,2016-12-09 10:30:00,
2016-12-09 02:35:00,46.0,36.5,30.39,ENE,64,2.0,4.0,69,-99.99,,,0.00,1503.0,meteobridge,2016-12-09 10:35:00,
2016-12-09 02:40:00,46.0,36.5,30.40,SSE,168,0.9,6.0,69,-99.99,,,0.00,1503.0,meteobridge,2016-12-09 10:40:00,
2016-12-09 02:45:00,46.2,36.7,30.40,SSW,198,2.0,3.0,69,-99.99,,,0.00,1503.0,meteobridge,2016-12-09 10:45:00,
2016-12-09 02:50:00,46.2,36.3,30.40,WSW,253,0.0,3.0,68,-99.99,,,0.00,1503.0,meteobridge,2016-12-09 10:50:00,
2016-12-09 02:55:00,46.0,36.5,30.39,North,0,4.9,7.0,69,-99.99,,,0.00,1503.0,meteobridge,2016-12-09 10:55:00,
2016-12-09 03:00:00,46.4,36.5,30.39,West,270,0.9,5.0,68,-99.99,,,0.00,1503.0,meteobridge,2016-12-09 11:00:00,
2016-12-09 03:05:00,46.4,36.5,30.39,NNW,335,2.0,2.0,68,-99.99,,,0.00,1503.0,meteobridge,2016-12-09 11:05:00,
2016-12-09 03:10:00,46.6,36.5,30.39,NW,308,2.0,6.0,68,-99.99,,,0.00,1503.0,meteobridge,2016-12-09 11:10:00,
2016-12-09 03:15:00,46.6,36.5,30.39,WNW,301,2.0,6.0,68,-99.99,,,0.00,1503.0,meteobridge,2016-12-09 11:15:00,
2016-12-09 03:20:00,46.6,36.5,30.39,West,272,0.0,2.0,68,-99.99,,,0.00,1503.0,meteobridge,2016-12-09 11:20:00,
2016-12-09 03:25:00,46.6,36.5,30.38,West,272,0.0,0.0,68,-99.99,,,0.00,1503.0,meteobridge,2016-12-09 11:25:00,
2016-12-09 03:31:00,46.6,36.5,30.38,West,277,0.0,0.0,68,-99.99,,,0.00,1503.0,meteobridge,2016-12-09 11:31:00,
2016-12-09 03:36:00,46.4,36.5,30.38,WNW,287,2.0,3.0,68,-99.99,,,0.00,1503.0,meteobridge,2016-12-09 11:36:00,
2016-12-09 03:41:00,46.4,36.5,30.40,SSW,212,2.0,3.0,68,-99.99,,,0.00,1503.0,meteobridge,2016-12-09 11:41:00,
2016-12-09 03:46:00,46.6,35.8,30.40,North,354,0.9,5.0,66,-99.99,,,0.00,1503.0,meteobridge,2016-12-09 11:46:00,
2016-12-09 03:51:00,46.6,35.8,30.40,West,275,0.0,1.0,66,-99.99,,,0.00,1503.0,meteobridge,2016-12-09 11:51:00,
2016-12-09 03:56:00,46.8,36.3,30.38,NW,309,0.0,1.0,67,-99.99,,,0.00,1503.0,meteobridge,2016-12-09 11:56:00,
2016-12-09 04:01:00,46.4,36.0,30.38,WNW,291,0.0,0.0,67,-99.99,,,0.00,1503.0,meteobridge,2016-12-09 12:01:00,
2016-12-09 04:06:00,46.4,36.0,30.38,WNW,284,0.0,1.0,67,-99.99,,,0.00,1503.0,meteobridge,2016-12-09 12:06:00,
2016-12-09 04:11:00,46.2,36.3,30.39,WNW,285,0.0,0.0,68,-99.99,,,0.00,1503.0,meteobridge,2016-12-09 12:11:00,
2016-12-09 04:16:00,46.4,36.5,30.39,West,277,0.0,0.0,68,-99.99,,,0.00,1503.0,meteobridge,2016-12-09 12:16:00,
2016-12-09 04:21:00,46.2,36.0,30.39,West,275,0.0,0.0,67,-99.99,,,0.00,1503.0,meteobridge,2016-12-09 12:21:00,
2016-12-09 04:26:00,46.2,36.3,30.39,WSW,250,2.0,3.0,68,-99.99,,,0.00,1503.0,meteobridge,2016-12-09 12:26:00,
2016-12-09 04:31:00,46.2,36.3,30.39,West,278,0.0,0.0,68,-99.99,,,0.00,1503.0,meteobridge,2016-12-09 12:31:00,
2016-12-09 04:41:00,46.0,36.1,30.39,West,277,0.0,1.0,68,-99.99,,,0.00,1503.0,meteobridge,2016-12-09 12:41:00,
2016-12-09 04:51:00,46.0,36.5,30.39,West,278,0.9,1.0,69,-99.99,,,0.00,1503.0,meteobridge,2016-12-09 12:51:00,
2016-12-09 05:01:00,46.0,36.9,30.39,NNW,333,0.0,0.0,70,-99.99,,,0.00,1503.0,meteobridge,2016-12-09 13:01:00,
2016-12-09 05:06:00,46.0,36.9,30.39,NNW,329,0.0,0.0,70,-99.99,,,0.00,1503.0,meteobridge,2016-12-09 13:06:00,
2016-12-09 05:11:00,46.0,36.9,30.39,NW,326,0.0,0.0,70,-99.99,,,0.00,1503.0,meteobridge,2016-12-09 13:11:00,
2016-12-09 05:17:00,45.9,37.0,30.39,WNW,296,0.0,0.0,71,-99.99,,,0.00,1503.0,meteobridge,2016-12-09 13:17:00,
2016-12-09 05:22:00,45.9,37.0,30.39,WNW,296,0.0,0.0,71,-99.99,,,0.00,1503.0,meteobridge,2016-12-09 13:22:00,
2016-12-09 05:27:00,45.9,37.0,30.39,WNW,292,0.0,0.0,71,-99.99,,,0.00,1503.0,meteobridge,2016-12-09 13:27:00,
2016-12-09 05:32:00,45.9,37.4,30.39,WNW,291,0.0,0.0,72,-99.99,,,0.00,1503.0,meteobridge,2016-12-09 13:32:00,
2016-12-09 05:37:00,45.9,37.4,30.39,WNW,299,0.0,2.0,72,-99.99,,,0.00,1503.0,meteobridge,2016-12-09 13:37:00,
2016-12-09 05:42:00,45.9,37.4,30.40,WSW,244,0.0,3.0,72,-99.99,,,0.00,1503.0,meteobridge,2016-12-09 13:42:00,
2016-12-09 05:47:00,45.9,37.4,30.40,WSW,244,0.0,0.0,72,-99.99,,,0.00,1503.0,meteobridge,2016-12-09 13:47:00,